[[{"header":{"parameterUnit":"m.s-1","parameterCategory":1,"la1":30.2991,"la2":30.254,"lo1":-89.0895,"lo2":-89.0444,"dy":0.0017,"dx":0.0017,"nx":28,"ny":28,"refTime":"2025-02-08T03:00:00:Z","depth":0,"parameterNumber":2,"parameterNumberName":"U-component_of_WINDS"},"data":[0,0,0,0,0,0,0,0,0,0,0,0,0,0,0,0,0,0,0,0,0,0,0,0,0,0,0,0,0,0,0,0,0,0,0,0,0,0,0,0,0,0,0,0,0,0,0,0,0,0,0,0,0,0,0,0,0,0,0.2426,0.2426,0,0.2375,0.2374,0.2373,0.2324,0.2323,0.2322,0.2322,0.2271,0.2271,0.227,0,0,0,0,0,0,0,0,0,0,0,0,0,0.2484,0.2483,0.2426,0.2426,0.2425,0.2375,0.2374,0.2373,0.2324,0.2323,0.2322,0.2321,0.2272,0.2271,0.227,0,0,0,0,0,0,0,0,0,0,0,0,0,0.2448,0.2483,0.2427,0.2394,0.2391,0.2375,0.2374,0.2373,0.2324,0.2323,0.2322,0.2321,0.2272,0.2271,0.227,0.2282,0,0,0.2266,0.2266,0,0,0,0,0,0,0,0,0.2451,0.2446,0.24,0.2396,0.2393,0.2354,0.2376,0.2343,0.2324,0.2349,0.2322,0.2321,0.23,0.2297,0.2289,0.228,0.2278,0.2266,0.2266,0.2265,0.2265,0,0,0,0,0,0,0,0.2453,0.2448,0.2406,0.2399,0.2395,0.2383,0.2377,0.2369,0.2331,0.2347,0.2343,0.2338,0.2298,0.229,0.2288,0.2277,0.2266,0.2265,0.2265,0.2264,0.2275,0.2276,0,0,0,0,0,0,0.246,0.2451,0.2408,0.2404,0.242,0.2383,0.2376,0.2368,0.2331,0.2324,0.2339,0.2336,0.2293,0.2289,0.2286,0.2297,0.2265,0.2264,0.2264,0.2274,0.2276,0.2277,0,0,0,0,0,0,0.2462,0.2457,0.241,0.2427,0.242,0.2383,0.2374,0.2367,0.2359,0.2324,0.2317,0.2338,0.2292,0.2287,0.2283,0.2295,0.2264,0.2263,0.2273,0.2275,0.2276,0.2322,0,0,0,0,0,0,0.2463,0.2458,0.2462,0.2427,0.2419,0.2408,0.2375,0.2367,0.2357,0.2353,0.2322,0.2316,0.2291,0.2285,0.2282,0.2293,0.2262,0.2272,0.2274,0.2276,0.2319,0.2325,0.233,0,0,0,0,0,0.2466,0.2478,0.2462,0.2457,0.2423,0.2409,0.2404,0.2374,0.2359,0.2363,0.234,0.2317,0.2294,0.2285,0.2281,0.2292,0.2271,0.2273,0.2275,0.2317,0.2324,0.2329,0,0,0,0,0,0,0.2516,0.2472,0.2455,0.2456,0.2436,0.24,0.2404,0.2383,0.2368,0.2364,0.2329,0.2322,0.2322,0.2307,0.2297,0.2302,0.2279,0.2281,0.2312,0.2318,0.2324,0.2328,0.2261,0,0,0,0,0,0.2527,0.2518,0.2481,0.2485,0.2476,0.2442,0.2435,0.2413,0.2392,0.2384,0.2361,0.2342,0.233,0.2323,0.2311,0.2317,0.2309,0.2322,0.2327,0.2332,0.2334,0.2335,0.234,0.2284,0.2284,0.2284,0,0,0.255,0.2525,0.2522,0.2494,0.2477,0.2469,0.2435,0.2429,0.2423,0.2383,0.2377,0.236,0.2336,0.2337,0.2336,0.2324,0.2347,0.2334,0.2338,0.2338,0.2338,0.2343,0.2348,0.2285,0.2285,0.2285,0,0,0.2587,0.2568,0.2569,0.2551,0.2524,0.2502,0.2502,0.2469,0.2455,0.2449,0.2419,0.2412,0.2393,0.2377,0.2366,0.2397,0.2375,0.2394,0.2421,0.2423,0.2427,0.2431,0.2442,0.2446,0.2396,0.2396,0.2396,0,0.262,0.2606,0.2572,0.2567,0.2556,0.2518,0.2519,0.2504,0.2475,0.2469,0.2455,0.243,0.2411,0.2408,0.2415,0.2408,0.2407,0.2398,0.2429,0.2433,0.2436,0.2446,0.245,0.2398,0.2398,0.2398,0.2397,0,0.2647,0.2638,0.2642,0.2613,0.2603,0.2601,0.2567,0.2561,0.254,0.2519,0.2513,0.2489,0.247,0.2468,0.2448,0.2461,0.2455,0.2436,0.2412,0.2444,0.2453,0.2457,0.2402,0.2401,0.24,0.24,0,0,0.2715,0.2667,0.267,0.2656,0.2623,0.2616,0.2612,0.2593,0.2588,0.2569,0.2565,0.2549,0.2531,0.2519,0.2497,0.2499,0.2525,0.248,0.2479,0.2489,0.2538,0.2552,0.2557,0.251,0.251,0.2511,0.254,0,0.2747,0.2737,0.2707,0.2707,0.2698,0.2661,0.2658,0.2638,0.2618,0.2608,0.2586,0.2575,0.2552,0.2544,0.2544,0.2522,0.2534,0.2519,0.2506,0.2506,0.2514,0.2562,0.2577,0.2606,0.2543,0.2543,0.2544,0,0.2784,0.2766,0.2765,0.2731,0.2726,0.2724,0.2704,0.2694,0.2671,0.2656,0.2642,0.2617,0.2612,0.2589,0.2581,0.2572,0.2565,0.2553,0.2553,0.2551,0.2527,0.2561,0.2614,0.2619,0.2549,0.2549,0.2548,0,0.2834,0.281,0.2805,0.2795,0.2756,0.2755,0.2739,0.2714,0.2704,0.2687,0.268,0.2663,0.2654,0.2641,0.2613,0.2599,0.2608,0.2583,0.2596,0.2597,0.26,0.26,0.2653,0.2595,0.2595,0.2595,0.2595,0,0.2873,0.2874,0.2827,0.2825,0.2824,0.2789,0.279,0.277,0.2748,0.2742,0.2709,0.2704,0.2666,0.2657,0.2634,0.2631,0.2627,0.2615,0.2609,0.2618,0.262,0.2614,0.2611,0.2596,0.2596,0.2595,0.2595,0,0.2929,0.2898,0.2891,0.2854,0.2845,0.2846,0.2815,0.2811,0.2789,0.2781,0.2777,0.2742,0.2729,0.2699,0.2678,0.2663,0.2666,0.2655,0.2674,0.267,0.2684,0.2683,0.2735,0.274,0.2679,0.268,0.268,0,0.2956,0.2955,0.2918,0.2911,0.2896,0.2885,0.2874,0.284,0.2831,0.2803,0.2803,0.2787,0.2773,0.2754,0.2727,0.2711,0.27,0.2719,0.2697,0.2706,0.27,0.27,0.27,0.2724,0.2725,0.2725,0.2726,0,0.3008,0.2992,0.2978,0.2958,0.2946,0.2929,0.2911,0.2907,0.2868,0.2859,0.2845,0.2834,0.2812,0.2797,0.2776,0.276,0.2737,0.2733,0.2735,0.2744,0.2755,0.2749,0.2687,0.2732,0.2731,0.2731,0.273,0.273,0.305,0.3047,0.302,0.3006,0.2988,0.2971,0.2965,0.2942,0.2929,0.2908,0.2888,0.2876,0.2852,0.2822,0.2808,0.2798,0.2786,0.2789,0.279,0.2791,0.2795,0.2756,0.2794,0.2794,0.2794,0.2794,0.2794,0,0.3099,0.308,0.3067,0.3041,0.3029,0.3007,0.2985,0.2977,0.2966,0.2946,0.2932,0.2915,0.29,0.2872,0.2855,0.2852,0.2841,0.2849,0.2849,0.2846,0.2807,0.2807,0.2858,0.2858,0.2858,0.2858,0.2858,0.2858,0.3124,0.3118,0.3099,0.3085,0.3065,0.3052,0.3042,0.3026,0.3009,0.2992,0.2979,0.296,0.2936,0.2917,0.2902,0.2894,0.289,0.2901,0.289,0.2854,0.2848,0.2843,0.2842,0.29,0.29,0.2929,0.293,0.293]},{"header":{"parameterUnit":"m.s-1","parameterCategory":1,"la1":30.2991,"la2":30.254,"lo1":-89.0895,"lo2":-89.0444,"dy":0.0017,"dx":0.0017,"nx":28,"ny":28,"refTime":"2025-02-08T03:00:00:Z","depth":0,"parameterNumber":3,"parameterNumberName":"V-component_of_WINDS"},"data":[0,0,0,0,0,0,0,0,0,0,0,0,0,0,0,0,0,0,0,0,0,0,0,0,0,0,0,0,0,0,0,0,0,0,0,0,0,0,0,0,0,0,0,0,0,0,0,0,0,0,0,0,0,0,0,0,0,0,4.066,4.0662,0,4.0838,4.084,4.0842,4.0877,4.0875,4.0874,4.0873,4.1051,4.1057,4.1063,0,0,0,0,0,0,0,0,0,0,0,0,0,4.035,4.0356,4.066,4.0662,4.0665,4.0837,4.084,4.0842,4.0877,4.0875,4.0874,4.0872,4.1049,4.1056,4.1064,0,0,0,0,0,0,0,0,0,0,0,0,0,4.0502,4.0358,4.066,4.0703,4.0709,4.0837,4.084,4.0843,4.0877,4.0875,4.0873,4.0871,4.1047,4.1056,4.1065,4.1162,0,0,4.1092,4.1096,0,0,0,0,0,0,0,0,4.0493,4.0513,4.0694,4.07,4.0707,4.0833,4.0796,4.095,4.0878,4.0813,4.0873,4.087,4.098,4.0995,4.1032,4.117,4.1178,4.1093,4.1099,4.1103,4.1105,0,0,0,0,0,0,0,4.0483,4.0506,4.073,4.0697,4.0705,4.0713,4.0732,4.0825,4.0906,4.0819,4.0822,4.0842,4.0983,4.1023,4.1037,4.118,4.1093,4.1101,4.1107,4.111,4.1409,4.1412,0,0,0,0,0,0,4.0465,4.0497,4.0725,4.0736,4.0593,4.072,4.0742,4.0794,4.0905,4.092,4.0844,4.0843,4.1009,4.1026,4.1043,4.1166,4.1102,4.1111,4.1116,4.1407,4.141,4.1412,0,0,0,0,0,0,4.0458,4.0485,4.0718,4.0617,4.0648,4.0728,4.0787,4.0799,4.084,4.0924,4.0938,4.087,4.1008,4.103,4.1133,4.1173,4.1115,4.1123,4.1404,4.1408,4.1411,4.1412,0,0,0,0,0,0,4.0449,4.0482,4.052,4.0618,4.0653,4.0805,4.0789,4.0804,4.0855,4.0856,4.0953,4.0967,4.1008,4.1119,4.1142,4.1184,4.113,4.1401,4.1405,4.141,4.1409,4.1415,4.1421,0,0,0,0,0,4.0438,4.0512,4.0522,4.0549,4.0702,4.0807,4.0827,4.0874,4.0858,4.0897,4.0952,4.0964,4.1164,4.1129,4.1155,4.1201,4.1398,4.1404,4.141,4.1406,4.1414,4.1421,0,0,0,0,0,0,4.0416,4.0526,4.0538,4.0646,4.0717,4.0813,4.0863,4.088,4.0956,4.0954,4.1008,4.1029,4.1129,4.1175,4.1134,4.1302,4.128,4.1291,4.1269,4.1277,4.1283,4.1271,4.1138,0,0,0,0,0,4.0424,4.0501,4.0592,4.0679,4.0714,4.0782,4.083,4.086,4.0935,4.0965,4.1027,4.1099,4.1179,4.123,4.1308,4.1415,4.1437,4.1459,4.1465,4.147,4.1479,4.1541,4.1553,4.1431,4.1431,4.1431,0,0,4.0441,4.051,4.0555,4.0676,4.0735,4.0813,4.0807,4.089,4.0949,4.0977,4.1079,4.1127,4.1211,4.1317,4.1366,4.1358,4.1518,4.1477,4.148,4.1487,4.1548,4.156,4.157,4.1435,4.1434,4.1434,0,0,4.0512,4.0572,4.0652,4.0711,4.0801,4.0846,4.0865,4.0959,4.0992,4.1095,4.1119,4.1189,4.1324,4.1384,4.1432,4.1527,4.1542,4.1551,4.1583,4.1643,4.1653,4.1662,4.1698,4.171,4.1559,4.1559,4.1559,0,4.0522,4.0642,4.069,4.0773,4.0826,4.0857,4.0939,4.0993,4.1103,4.1139,4.1128,4.13,4.1358,4.148,4.1504,4.154,4.1565,4.1541,4.1648,4.1657,4.1666,4.1701,4.1714,4.156,4.156,4.156,4.156,0,4.065,4.0733,4.0786,4.0894,4.0953,4.1034,4.1095,4.1149,4.1174,4.122,4.1325,4.1397,4.149,4.1521,4.1545,4.1646,4.1639,4.1637,4.1617,4.1677,4.1712,4.1725,4.1561,4.1561,4.1561,4.1561,0,0,4.0713,4.0847,4.0867,4.0917,4.1018,4.1083,4.1166,4.1259,4.1305,4.1379,4.1451,4.1565,4.1565,4.1619,4.1651,4.1703,4.1777,4.1695,4.1698,4.171,4.1895,4.1898,4.1913,4.1786,4.1789,4.1791,4.1889,0,4.0799,4.095,4.0997,4.1123,4.1201,4.1231,4.1304,4.1374,4.142,4.1492,4.1542,4.1623,4.1615,4.1649,4.1702,4.1757,4.1815,4.175,4.1855,4.1858,4.1835,4.193,4.1933,4.2022,4.1903,4.1905,4.1906,0,4.0919,4.0998,4.1132,4.1226,4.126,4.1325,4.1415,4.1483,4.1563,4.1593,4.1655,4.1682,4.177,4.1744,4.1867,4.1821,4.1867,4.19,4.1905,4.1918,4.1887,4.1948,4.2051,4.2065,4.1927,4.1926,4.1924,0,4.0954,4.1094,4.1193,4.1234,4.1345,4.139,4.1438,4.1516,4.157,4.1648,4.1684,4.177,4.1818,4.1885,4.1935,4.191,4.2054,4.2031,4.2082,4.2081,4.2113,4.211,4.2227,4.2138,4.2137,4.2137,4.2137,0,4.1046,4.1128,4.1211,4.1272,4.1365,4.1417,4.1508,4.1557,4.1627,4.1698,4.1728,4.1794,4.1856,4.193,4.1969,4.2067,4.2087,4.2114,4.2124,4.2113,4.211,4.2145,4.2141,4.2141,4.214,4.2139,4.2139,0,4.1103,4.1161,4.1272,4.1368,4.1394,4.1459,4.1541,4.1602,4.1648,4.1739,4.1763,4.1836,4.1926,4.1982,4.2094,4.2121,4.2229,4.2235,4.2202,4.2207,4.2256,4.2252,4.2401,4.2424,4.2317,4.2318,4.2319,0,4.1159,4.1223,4.1326,4.1377,4.1426,4.1507,4.1563,4.1617,4.1673,4.177,4.1819,4.1911,4.1987,4.2129,4.2192,4.2279,4.2289,4.2335,4.2302,4.229,4.2293,4.2289,4.2297,4.2341,4.2342,4.2343,4.2343,0,4.1253,4.1279,4.1358,4.1448,4.1514,4.1587,4.166,4.17,4.1766,4.1828,4.1921,4.198,4.2097,4.2188,4.228,4.2329,4.2349,4.2353,4.237,4.2361,4.234,4.2354,4.222,4.235,4.2349,4.2349,4.2349,4.2348,4.1312,4.1372,4.1455,4.1543,4.1603,4.1671,4.1734,4.1789,4.1868,4.1968,4.1995,4.2092,4.2172,4.2299,4.235,4.2427,4.242,4.2444,4.245,4.2456,4.2458,4.2326,4.2443,4.2443,4.2443,4.2443,4.2443,0,4.141,4.1465,4.1546,4.1648,4.1717,4.1729,4.1811,4.1868,4.1954,4.2027,4.2102,4.221,4.2298,4.2369,4.246,4.2508,4.2519,4.2531,4.2529,4.254,4.2457,4.2435,4.252,4.252,4.252,4.252,4.252,4.252,4.1469,4.1571,4.1607,4.174,4.1794,4.1891,4.1937,4.2,4.2059,4.2178,4.2253,4.2298,4.2371,4.2468,4.255,4.2569,4.2602,4.2612,4.2632,4.2554,4.2546,4.2538,4.2517,4.2618,4.2618,4.2709,4.271,4.2711]}]]